Home   Weather   Nanpara   Past weeks
Flag for India

Past Weather in Nanpara, Uttar Pradesh, India — Yesterday and Last 2 Weeks

Now
66 °F

Fog.


Feels Like: 66 °F
Forecast: 88 / 62 °F
Wind: No wind

Location: Lucknow / Amausi

Current Time: Oct 23, 2019 at 7:58:18 am

Latest Report: Oct 23, 2019 at 6:00 am


Visibility: 2 mi

Pressure: 29.80 "Hg

Humidity: 94%

Dew Point: 64 °F

Location of NanparaLocation

Past Weather in Nanpara — Graph

°F

Nanpara Temperature Yesterday

Maximum temperature yesterday: 84 °F (at 1:00 pm)
Minimum temperature yesterday: 64 °F (at 3:30 am)
Average temperature yesterday: 74 °F

High & Low Weather Summary for the Past Weeks

 TemperatureHumidityPressure
High93 °F (Oct 13, 2:30 pm)100% (Oct 10, 2:30 am)30.07 "Hg (Oct 10, 2:30 am)
Low64 °F (Oct 22, 3:30 am)37% (Oct 22, 3:30 pm)29.77 "Hg (Oct 22, 3:00 pm)
Average79 °F78%29.90 "Hg
* Reported Oct 8 5:30 am — Oct 23 6:00 am, Nanpara. Weather by CustomWeather, © 2019

Note: Actual official high and low records may vary slightly from our data, if they occured in-between our weather recording intervals... More about our weather records

Advertising

Nanpara Weather History for the Previous 24 Hours

Scroll right to see more
 ConditionsComfort  
Time TempWeatherWind HumidityBarometerVisibility
6:00 am
Wed, Oct 23
66 °FFog.No wind94%29.80 "Hg1 mi
5:30 am66 °FFog.No wind88%29.80 "Hg1 mi
5:00 am66 °FFog.No wind94%29.80 "Hg1 mi
4:30 am66 °FFog.No wind94%29.77 "Hg1 mi
4:00 am66 °FFog.No wind94%29.77 "Hg1 mi
3:30 am66 °FFog.No wind94%29.80 "Hg1 mi
3:00 am66 °FFog.No wind94%29.80 "Hg1 mi
2:30 am66 °FFog.No wind94%29.80 "Hg1 mi
2:00 am68 °FFog.No wind94%29.80 "Hg1 mi
1:30 am68 °FFog.No wind94%29.80 "Hg1 mi
1:00 am68 °FFog.No wind100%29.80 "Hg1 mi
12:30 am70 °FFog.No wind94%29.80 "Hg1 mi
12:00 am70 °FFog.No wind94%29.80 "Hg1 mi
11:30 pm
Tue, Oct 22
70 °FFog.No wind94%29.83 "Hg1 mi
11:00 pm70 °FFog.No wind94%29.83 "Hg1 mi
10:30 pm70 °FFog.No wind94%29.83 "Hg1 mi
10:00 pm72 °FFog.No wind94%29.83 "Hg1 mi
9:30 pm72 °FFog.No wind94%29.83 "Hg1 mi
9:00 pm73 °FFog.No wind89%29.83 "Hg2 mi
8:00 pm75 °FFog.No wind78%29.80 "Hg2 mi
7:30 pm73 °FFog.No wind83%29.80 "Hg2 mi
7:00 pm75 °FPartly cloudy.No wind74%29.80 "Hg2 mi
6:30 pm75 °FPartly cloudy.No wind69%29.80 "Hg2 mi
6:00 pm77 °FBroken clouds.No wind65%29.77 "Hg2 mi
5:30 pm81 °FBroken clouds.No wind54%29.77 "Hg2 mi
5:00 pm81 °FBroken clouds.No wind54%29.77 "Hg2 mi
4:30 pm82 °FBroken clouds.2 mph45%29.77 "Hg2 mi
4:00 pm84 °FBroken clouds.5 mph40%29.77 "Hg2 mi
3:30 pm84 °FScattered clouds.8 mph37%29.77 "Hg2 mi
3:00 pm84 °FScattered clouds.6 mph43%29.77 "Hg2 mi
2:30 pm84 °FScattered clouds.6 mph40%29.80 "Hg2 mi
2:00 pm84 °FScattered clouds.8 mph43%29.80 "Hg2 mi
1:30 pm84 °FScattered clouds.7 mph43%29.80 "Hg2 mi
1:00 pm84 °FScattered clouds.7 mph43%29.83 "Hg2 mi
12:30 pm82 °FScattered clouds.7 mph45%29.83 "Hg2 mi
12:00 pm82 °FScattered clouds.7 mph45%29.86 "Hg2 mi
11:30 am82 °FScattered clouds.7 mph45%29.86 "Hg2 mi
11:00 am81 °FScattered clouds.6 mph54%29.89 "Hg2 mi
10:30 am81 °FScattered clouds.6 mph54%29.89 "Hg2 mi
10:00 am79 °FHaze.6 mph61%29.89 "Hg2 mi
9:30 am75 °FHaze.6 mph69%29.89 "Hg2 mi
9:00 am73 °FFog.6 mph74%29.89 "Hg1 mi
8:30 am72 °FFog.6 mph83%29.89 "Hg1 mi
8:00 am70 °FFog.5 mph83%29.89 "Hg1 mi
7:30 am68 °FFog.5 mph83%29.86 "Hg1 mi
7:00 am64 °FFog.3 mph94%29.86 "Hg1 mi
Weather by CustomWeather, © 2019

See weather overview